SES-9

Last updated on Tue Sep 22 2026 00:03:13 GMT+0000 (Coordinated Universal Time)

1 41380U 16013A 26264.58180442 .00000000 00000+0 00000+0 0 9997 2 41380 0.0148 158.2894 0001870 334.3369 185.5840 1.00267750 38409
UTC large
Height (km)
Speed (km/s)
/
Latitude / Longitude
Inclination (degrees)
Orbital Period (minutes)
Azimuth
Elevation
Range (km)
Doppler Factor

Next 0 passes for location: London (51.5072 / 0.1276)

No passes found over London.
SES-9